Flag for Canada Weather past 2 weeks in Shawinigan, Quebec, Canada

Now
39 °F

Chilly.


Feels Like: 34 °F
Forecast: 32 / 37 °F
Wind: 7 mph from West

Location: Shawinigan CS

Current Time: Dec 26, 2014 at 3:12:04 PM

Latest Report: Dec 26, 2014 at 2:00 PM


Visibility: N/A

Pressure: 29.98 "Hg

Humidity: 63%

Dew point: 27 °F

Location of ShawiniganLocation

Historic Weather in Shawinigan — Graph

°F

Shawinigan temperature yesterday

Maximum temperature yesterday: 41 °F (at 12:00 PM)
Minimum temperature yesterday: 36 °F (at 1:00 AM)
Average temperature yesterday: 39 °F

Past Weeks' High & Low Weather Summary

 TemperatureHumidityPressure
High41 °F (Dec 25, 12:00 PM)100% (Dec 11, 2:00 PM)30.45 "Hg (Dec 11, 2:00 PM)
Low8 °F (Dec 20, 8:00 AM)51% (Dec 26, 11:00 AM)29.21 "Hg (Dec 25, 7:00 AM)
Average27 °F84%29.98 "Hg
* Reported Dec 11 2:00 PM — Dec 26 2:00 PM, Shawinigan, Weather by CustomWeather, © 2014

Note: Actual official high and low records may vary slightly from our data, if they occured in-between our weather recording intervals... More about our weather records

Advertising

Shawinigan weather history for previous 24 hours

 ConditionsComfort  
Time TempWeatherWind HumidityBarometerVisibility
2:00 PM
Dec 26
39 °FChilly.7 mph63%29.98 "HgN/A
1:00 PM39 °FChilly.9 mph59%29.99 "HgN/A
12:00 PM39 °FChilly.12 mph56%29.99 "HgN/A
11:00 AM40 °FChilly.12 mph51%30.01 "HgN/A
10:00 AM39 °FChilly.13 mph54%30.01 "HgN/A
9:00 AM36 °FChilly.8 mph65%29.98 "HgN/A
8:00 AM35 °FChilly.7 mph64%29.95 "HgN/A
7:00 AM36 °FChilly.8 mph58%29.91 "HgN/A
6:00 AM36 °FChilly.9 mph57%29.89 "HgN/A
5:00 AM37 °FChilly.10 mph57%29.86 "HgN/A
4:00 AM38 °FChilly.13 mph67%29.83 "HgN/A
3:00 AM39 °FChilly.12 mph61%29.82 "HgN/A
2:00 AM39 °FChilly.8 mph61%29.79 "HgN/A
1:00 AM38 °FChilly.14 mph60%29.75 "HgN/A
12:00 AM39 °FChilly.15 mph56%29.72 "HgN/A
11:00 PM
Dec 25
39 °FChilly.15 mph54%29.69 "HgN/A
10:00 PM39 °FChilly.16 mph56%29.66 "HgN/A
9:00 PM38 °FChilly.15 mph58%29.63 "HgN/A
8:00 PM38 °FChilly.14 mph59%29.60 "HgN/A
7:00 PM39 °FChilly.16 mph57%29.56 "HgN/A
6:00 PM39 °FChilly.14 mph63%29.52 "HgN/A
5:00 PM39 °FChilly.15 mph61%29.48 "HgN/A
4:00 PM41 °FQuite cool.14 mph60%29.43 "HgN/A
3:00 PM41 °FQuite cool.12 mph61%29.37 "HgN/A
Weather by CustomWeather, © 2014

See weather overviewHow to use our weather pages